Change the Weather History Date:

Tuesday, November 6, 2012

  Actual Average Record
Temperature  
Mean Temperature 57 °F -  
Max Temperature 63 °F 64 °F 75 °F (2010)
Min Temperature 51 °F 46 °F 39 °F (2002)
Degree Days  
Heating Degree Days 8    
Growing Degree Days 7 (Base 50)    
Moisture  
Dew Point 52 °F    
Average Humidity 83    
Maximum Humidity 94    
Minimum Humidity 58    
Precipitation  
Precipitation 0.04 in 0.09 in - ()
Sea Level Pressure  
Sea Level Pressure 30.08 in    
Wind  
Wind Speed 2 mph ()    
Max Wind Speed 5 mph    
Max Gust Speed -    
Visibility 6.3 miles    
Events Rain    
Averages and records for this station are not official NWS values.
T = Trace of Precipitation, MM = Missing Value Source: Averaged Metar Reports

Daily Weather History Graph

Daily Weather History Graph

Search for Another Location

Airport or City:

Trip Planner

Search our weather history database for the weather conditions in past years. The results will help you decide how hot, cold, wet, or windy it might be!

Date:

Astronomy

Nov. 06, 2012 Rise Set
Actual Time 6:57 AM CET 5:17 PM CET
Civil Twilight 6:29 AM CET 5:45 PM CET
Nautical Twilight 5:57 AM CET 6:17 PM CET
Astronomical Twilight 5:26 AM CET 6:48 PM CET
Moon 11:38 PM CET 12:41 PM CET
Length of Visible Light 11h 15m
Length of Day
10h 19m
Waning Gibbous, 56% of the Moon is Illuminated
Nov 6
Waning Gibbous
Nov 7
Last Quarter
Nov 13
New
Nov 20
First Quarter
Nov 28
Full

Hourly Weather History & Observations

Time (CET) Temp. Dew Point Humidity Pressure Visibility Wind Dir Wind Speed Gust Speed Precip Events Conditions
12:55 AM 55.4 °F 51.8 °F 88% 30.04 in 6.2 mi North 4.6 mph - N/A   Partly Cloudy
1:00 AM 55 °F 52 °F 85% 30.05 in 7 mi North 4.6 mph - -   Scattered Clouds
1:55 AM 53.6 °F 50.0 °F 88% 30.04 in 6.2 mi West 3.5 mph - N/A   Partly Cloudy
2:55 AM 51.8 °F 50.0 °F 94% 30.04 in 6.2 mi North 1.2 mph - N/A   Partly Cloudy
3:55 AM 51.8 °F 48.2 °F 88% 30.04 in 6.2 mi NNE 2.3 mph - N/A   Partly Cloudy
4:00 AM 52 °F 48 °F 80% 30.04 in 7 mi NNE 2.3 mph - -   Scattered Clouds
4:55 AM 51.8 °F 46.4 °F 82% 30.04 in 6.2 mi Calm Calm - N/A   Partly Cloudy
5:55 AM 51.8 °F 46.4 °F 82% 30.04 in 6.2 mi NNW 4.6 mph - N/A   Partly Cloudy
7:00 AM 54 °F 49 °F 79% 30.05 in 6 mi Calm Calm - -   Overcast
7:55 AM 53.6 °F 50.0 °F 88% 30.06 in 6.2 mi Calm Calm - N/A   Scattered Clouds
10:00 AM 57 °F 53 °F 80% 30.08 in 7 mi Calm Calm - - Rain Light Rain
10:55 AM 59.0 °F 51.8 °F 77% 30.06 in 6.2 mi SSW 2.3 mph - N/A   Partly Cloudy
12:55 PM 62.6 °F 51.8 °F 68% 30.06 in 6.2 mi WSW 4.6 mph - N/A Rain Light Rain
1:00 PM 63 °F 52 °F 58% 30.09 in 6 mi WSW 4.6 mph - - Rain Light Rain
1:55 PM 60.8 °F 55.4 °F 82% 30.06 in 5.0 mi SW 4.6 mph - N/A Rain Light Rain
2:55 PM 59.0 °F 53.6 °F 82% 30.06 in 5.0 mi West 4.6 mph - N/A Rain Light Rain
4:00 PM 61 °F 57 °F 81% 30.08 in 9 mi WNW 2.3 mph - - Rain Light Rain
4:55 PM 60.8 °F 57.2 °F 88% 30.06 in 6.2 mi NNW 1.2 mph - N/A Rain Light Rain
5:55 PM 59.0 °F 57.2 °F 94% 30.09 in 6.2 mi NNW 2.3 mph - N/A Rain Light Rain
6:55 PM 59.0 °F 55.4 °F 88% 30.09 in 6.2 mi NE 1.2 mph - N/A Rain Light Rain
7:00 PM 59 °F 55 °F 83% 30.11 in 7 mi NE 1.2 mph - - Rain Light Rain
7:55 PM 59.0 °F 55.4 °F 88% 30.09 in 6.2 mi Calm Calm - N/A   Mostly Cloudy
8:55 PM 57.2 °F 53.6 °F 88% 30.12 in 6.2 mi NNE 2.3 mph - N/A   Mostly Cloudy
9:55 PM 59.0 °F 53.6 °F 82% 30.12 in 6.2 mi North 1.2 mph - N/A   Mostly Cloudy
10:00 PM 58 °F 54 °F 83% 30.14 in 6 mi North 1.2 mph - -   Partly Cloudy
10:55 PM 57.2 °F 53.6 °F 88% 30.15 in 6.2 mi NW 2.3 mph - N/A   Scattered Clouds
11:55 PM 57.2 °F 51.8 °F 82% 30.15 in 6.2 mi NNW 3.5 mph - N/A   Mostly Cloudy